Weather Roundup
Issued by NWS Springfield, MO

Home | Current Version | Previous Version | Text Only | Print | Product List | Glossary On
Versions: 1 2 3 4 5 6 7 8 9 10 11 12 13 14 15 16 17 18 19 20 21 22 23 24 25 26 27 28 29 30 31 32 33 34 35 36 37 38 39 40 41 42 43 44 45 46 47 48 49 50
284
NZUS99 KSGF 300457
HRRSGF

HOURLY WEATHER
NATIONAL WEATHER SERVICE SPRINGFIELD MO
1200 AM CDT THU MAR 30 2017

......SGF CWA......

CITY           SKY/WX    TMP DP  RH WIND       PRES   REMARKS
SPRINGFIELD    MOCLDY    59  53  80 SW5       29.66S
JOPLIN         CLEAR     54  47  77 SW16      29.66F
ROLLA          LGT RAIN  63  62  97 SE8       29.65F

......SURROUNDING SGF CWA......

CITY           SKY/WX    TMP DP  RH WIND       PRES   REMARKS
CHANUTE        CLOUDY    49  44  83 SW22      29.61F
PARSONS        CLOUDY    50  44  80 SW12G26   29.63F
COFFEYVILLE    CLOUDY    50  44  80 SW15      29.65F
EMPORIA        CLOUDY    49  49 100 S6        29.56F
HARRISON AR    CLOUDY    62  61  96 S6        29.68F

......KANSAS AND MISSOURI......

CITY           SKY/WX    TMP DP  RH WIND       PRES   REMARKS
KANSAS CTY INT CLOUDY    53  53 100 NE12      29.62F FOG
SEDALIA        CLOUDY    58  58 100 W5        29.63S FOG
ST JOSEPH      CLOUDY    52  52 100 E16G25    29.62F
ST LOUIS       CLOUDY    61  54  77 SE13      29.71F
SPIRIT OF STL  LGT RAIN  63  55  77 SE6       29.70F
WICHITA        DRIZZLE   44  44 100 NW16      29.64F
TOPEKA         CLOUDY    56  56 100 SE5       29.59S
OLATHE         CLOUDY    53  53 100 NE7       29.62F FOG

......TENNESSEE......

CITY           SKY/WX    TMP DP  RH WIND       PRES   REMARKS
MEMPHIS        NOT AVBL
NASHVILLE      CLOUDY    70  59  68 S3        29.88F

......ARKANSAS.......

CITY           SKY/WX    TMP DP  RH WIND       PRES   REMARKS
FAYETTEVILLE   CLEAR     57  50  77 SW7       29.71R
FT SMITH       PTCLDY    61  51  70 W9        29.71R
LITTLE ROCK    CLOUDY    70  63  78 S7        29.73R

......OKLAHOMA.......

CITY           SKY/WX    TMP DP  RH WIND       PRES   REMARKS
TULSA          PTCLDY    50  43  77 W18G26    29.70S
PONCA CITY     CLOUDY    46  42  86 W13G21    29.69F
MCALESTER      PTCLDY    54  42  64 NW10      29.77S
OKLAHOMA CITY  CLOUDY    48  40  73 W12       29.79F

......IOWA............

CITY           SKY/WX    TMP DP  RH WIND       PRES   REMARKS
DES MOINES     NOT AVBL
QUAD CITIES    RAIN      43  39  86 E23G33    29.84F

......ILLINOIS........

CITY           SKY/WX    TMP DP  RH WIND       PRES   REMARKS
QUINCY         TSTM      52  52 100 E12       29.72F FOG
CHICAGO        LGT RAIN  45  38  76 E17G25    30.00F




USA.gov is the U.S. government's official web portal to all federal, state and local government web resources and services.